Weather History for Greybull, WY

Change the Weather History Date:

Saturday, March 2, 2013

  Actual Average Record
Temperature  
Mean Temperature 34 °F 31 °F  
Max Temperature 48 °F 44 °F 60 °F (2009)
Min Temperature 20 °F 18 °F -9 °F (2014)
Degree Days  
Heating Degree Days 31 34  
Month to date heating degree days 66 69  
Since 1 July heating degree days 5940 6040  
Cooling Degree Days 0 0  
Month to date cooling degree days 0 0  
Year to date cooling degree days 0 0  
Moisture  
Dew Point 27 °F    
Average Humidity 71    
Maximum Humidity 89    
Minimum Humidity 53    
Precipitation  
Precipitation 0.00 in 0.00 in 0.25 in (1966)
Month to date precipitation 0.00 0.01  
Year to date precipitation 0.42 0.42  
Sea Level Pressure  
Sea Level Pressure 30.24 in    
Wind  
Wind Speed 3 mph (SE)    
Max Wind Speed 10 mph    
Max Gust Speed 12 mph    
Visibility 10 miles    
Events      
T = Trace of Precipitation, MM = Missing Value Source: NWS Daily Summary

Daily Weather History Graph

Daily Weather History Graph

Search for Another Location

Airport:

Trip Planner

Search our weather history database for the weather conditions in past years. The results will help you decide how hot, cold, wet, or windy it might be!

Date:

Astronomy

Mar. 02, 2013 Rise Set
Actual Time 6:47 AM MST 6:01 PM MST
Civil Twilight 6:18 AM MST 6:31 PM MST
Nautical Twilight 5:44 AM MST 7:04 PM MST
Astronomical Twilight 5:10 AM MST 7:38 PM MST
Moon No Moon Rise 9:03 AM MST (3/2)
Length of Visible Light 12h 12m
Length of Day
11h 14m
Waning Gibbous, 73% of the Moon is Illuminated
Mar 2
Waning Gibbous
Mar 4
Last Quarter
Mar 11
New
Mar 19
First Quarter
Mar 27
Full

Hourly Weather History & Observations

Time (MST) Temp. Windchill Dew Point Humidity Pressure Visibility Wind Dir Wind Speed Gust Speed Precip Events Conditions
12:53 AM 28.0 °F 22.8 °F 24.1 °F 85% 30.37 in 10.0 mi ESE 4.6 mph - N/A   Clear
1:53 AM 26.1 °F 21.9 °F 23.0 °F 88% 30.37 in 10.0 mi SE 3.5 mph - N/A   Clear
2:53 AM 25.0 °F - 21.9 °F 88% 30.38 in 10.0 mi Calm Calm - N/A   Clear
3:53 AM 24.1 °F - 21.0 °F 88% 30.37 in 10.0 mi Calm Calm - N/A   Clear
4:53 AM 25.0 °F 20.7 °F 21.0 °F 85% 30.37 in 10.0 mi East 3.5 mph - N/A   Clear
5:53 AM 25.0 °F - 21.0 °F 85% 30.40 in 10.0 mi Calm Calm - N/A   Clear
6:53 AM 21.0 °F 14.6 °F 18.0 °F 88% 30.40 in 10.0 mi SSE 4.6 mph - N/A   Clear
7:53 AM 23.0 °F 17.0 °F 19.9 °F 88% 30.40 in 9.0 mi SSE 4.6 mph - N/A   Clear
8:53 AM 28.0 °F 22.8 °F 24.1 °F 85% 30.38 in 10.0 mi SSE 4.6 mph - N/A   Clear
9:53 AM 32.0 °F - 25.0 °F 75% 30.37 in 10.0 mi Calm Calm - N/A   Clear
10:53 AM 37.9 °F - 27.0 °F 65% 30.32 in 10.0 mi Calm Calm - N/A   Clear
11:53 AM 41.0 °F 38.0 °F 28.0 °F 60% 30.29 in 10.0 mi South 4.6 mph - N/A   Clear
12:53 PM 45.0 °F 42.6 °F 28.9 °F 53% 30.25 in 10.0 mi South 4.6 mph - N/A   Clear
1:53 PM 46.9 °F - 30.0 °F 52% 30.22 in 10.0 mi South 4.6 mph - N/A   Clear
2:53 PM 46.9 °F - 30.9 °F 54% 30.21 in 10.0 mi ESE 3.5 mph - N/A   Partly Cloudy
3:53 PM 44.1 °F 40.1 °F 30.0 °F 58% 30.19 in 10.0 mi East 6.9 mph - N/A   Mostly Cloudy
4:53 PM 43.0 °F - 30.0 °F 60% 30.16 in 10.0 mi Calm Calm - N/A   Scattered Clouds
5:53 PM 42.1 °F - 30.9 °F 65% 30.13 in 10.0 mi Calm Calm - N/A   Clear
6:53 PM 39.0 °F - 30.0 °F 70% 30.13 in 10.0 mi Calm Calm - N/A   Partly Cloudy
7:53 PM 37.0 °F 34.5 °F 30.9 °F 79% 30.09 in 10.0 mi SE 3.5 mph - N/A   Clear
8:53 PM 37.0 °F 34.5 °F 30.9 °F 79% 30.04 in 10.0 mi SE 3.5 mph - N/A   Clear
9:53 PM 35.1 °F 30.1 °F 30.0 °F 82% 30.02 in 10.0 mi SW 5.8 mph - N/A   Clear
10:53 PM 34.0 °F 29.8 °F 30.0 °F 85% 29.98 in 10.0 mi NNW 4.6 mph - N/A   Clear
11:53 PM 34.0 °F 26.0 °F 30.0 °F 85% 29.96 in 10.0 mi NW 10.4 mph - N/A   Clear